TimeCDT,TemperatureF,Dew PointF,Humidity,Sea Level PressureIn,VisibilityMPH,Wind Direction,Wind SpeedMPH,Gust SpeedMPH,PrecipitationIn,Events,Conditions,WindDirDegrees,DateUTC
12:15 AM,-9999,-9999,N/A,29.95,10.0,SSW,13.8,-,N/A,,Clear,200,2012-10-09 05:15:00
12:35 AM,-9999,-9999,N/A,29.95,10.0,SSW,11.5,-,N/A,,Clear,200,2012-10-09 05:35:00
12:55 AM,-9999,-9999,N/A,29.95,10.0,SSW,12.7,-,N/A,,Mostly Cloudy,200,2012-10-09 05:55:00
1:15 AM,-9999,-9999,N/A,29.94,10.0,SSW,16.1,21.9,N/A,,Scattered Clouds,210,2012-10-09 06:15:00
1:35 AM,-9999,-9999,N/A,29.95,10.0,SSW,16.1,23.0,N/A,,Partly Cloudy,210,2012-10-09 06:35:00
1:55 AM,-9999,-9999,N/A,29.94,10.0,SSW,16.1,-,N/A,,Mostly Cloudy,210,2012-10-09 06:55:00
2:15 AM,-9999,-9999,N/A,29.94,10.0,SW,16.1,-,N/A,,Mostly Cloudy,220,2012-10-09 07:15:00
2:55 AM,-9999,-9999,N/A,29.93,10.0,SSW,15.0,-,N/A,,Clear,210,2012-10-09 07:55:00
3:15 AM,-9999,-9999,N/A,29.92,10.0,SSW,16.1,20.7,N/A,,Scattered Clouds,210,2012-10-09 08:15:00
3:35 AM,-9999,-9999,N/A,29.91,10.0,SSW,16.1,-,N/A,,Partly Cloudy,210,2012-10-09 08:35:00
3:55 AM,-9999,-9999,N/A,29.92,10.0,SSW,16.1,19.6,N/A,,Mostly Cloudy,210,2012-10-09 08:55:00
4:15 AM,-9999,-9999,N/A,29.92,10.0,SW,13.8,-,N/A,,Mostly Cloudy,220,2012-10-09 09:15:00
4:35 AM,-9999,-9999,N/A,29.92,10.0,SW,11.5,-,N/A,,Partly Cloudy,220,2012-10-09 09:35:00
4:55 AM,48.2,33.8,58,29.92,10.0,SW,11.5,17.3,N/A,,Clear,220,2012-10-09 09:55:00
5:15 AM,48.2,33.8,58,29.92,10.0,SSW,11.5,-,N/A,,Clear,210,2012-10-09 10:15:00
5:35 AM,48.2,33.8,58,29.91,10.0,SSW,11.5,-,N/A,,Clear,210,2012-10-09 10:35:00
5:55 AM,-9999,-9999,N/A,29.91,10.0,SSW,11.5,-,N/A,,Clear,200,2012-10-09 10:55:00
6:15 AM,-9999,-9999,N/A,29.91,10.0,SSW,11.5,-,N/A,,Clear,210,2012-10-09 11:15:00
6:55 AM,46.4,33.8,62,29.91,10.0,SSW,12.7,-,N/A,,Clear,200,2012-10-09 11:55:00
7:15 AM,46.4,33.8,62,29.91,10.0,SSW,12.7,-,N/A,,Clear,200,2012-10-09 12:15:00
7:35 AM,46.4,33.8,62,29.91,10.0,SSW,12.7,-,N/A,,Clear,200,2012-10-09 12:35:00
7:55 AM,48.2,33.8,58,29.91,10.0,SSW,13.8,-,N/A,,Clear,200,2012-10-09 12:55:00
8:15 AM,-9999,-9999,N/A,29.91,10.0,SSW,15.0,-,N/A,,Clear,200,2012-10-09 13:15:00
8:35 AM,48.2,35.6,62,29.91,10.0,SSW,13.8,-,N/A,,Clear,210,2012-10-09 13:35:00
8:55 AM,50.0,35.6,58,29.91,10.0,SW,15.0,19.6,N/A,,Clear,220,2012-10-09 13:55:00
9:15 AM,-9999,-9999,N/A,29.89,10.0,SW,16.1,-,N/A,,Clear,220,2012-10-09 14:15:00
9:35 AM,-9999,-9999,N/A,29.89,10.0,SSW,17.3,-,N/A,,Clear,210,2012-10-09 14:35:00
9:55 AM,-9999,-9999,N/A,29.90,10.0,SSW,17.3,23.0,N/A,,Clear,210,2012-10-09 14:55:00
10:15 AM,-9999,-9999,N/A,29.90,10.0,SW,15.0,23.0,N/A,,Clear,220,2012-10-09 15:15:00
10:35 AM,55.4,35.6,47,29.89,10.0,SW,16.1,23.0,N/A,,Clear,220,2012-10-09 15:35:00
10:55 AM,-9999,-9999,N/A,29.89,10.0,SW,16.1,21.9,N/A,,Clear,230,2012-10-09 15:55:00
11:15 AM,-9999,-9999,N/A,29.89,10.0,SW,17.3,23.0,N/A,,Clear,220,2012-10-09 16:15:00
11:35 AM,-9999,-9999,N/A,29.88,10.0,WSW,18.4,-,N/A,,Clear,240,2012-10-09 16:35:00
11:55 AM,-9999,-9999,N/A,29.89,10.0,WSW,17.3,-,N/A,,Clear,250,2012-10-09 16:55:00
12:15 PM,-9999,-9999,N/A,29.88,10.0,WSW,12.7,-,N/A,,Clear,240,2012-10-09 17:15:00
12:35 PM,-9999,-9999,N/A,29.87,10.0,WSW,16.1,20.7,N/A,,Clear,240,2012-10-09 17:35:00
12:55 PM,-9999,-9999,N/A,29.85,10.0,WSW,16.1,21.9,N/A,,Clear,240,2012-10-09 17:55:00
1:15 PM,-9999,-9999,N/A,29.85,10.0,SW,13.8,19.6,N/A,,Clear,230,2012-10-09 18:15:00
1:35 PM,-9999,-9999,N/A,29.85,10.0,SW,15.0,20.7,N/A,,Clear,230,2012-10-09 18:35:00
1:55 PM,-9999,-9999,N/A,29.84,10.0,WSW,18.4,21.9,N/A,,Clear,250,2012-10-09 18:55:00
2:15 PM,-9999,-9999,N/A,29.85,10.0,WSW,16.1,23.0,N/A,,Clear,240,2012-10-09 19:15:00
2:35 PM,-9999,-9999,N/A,29.85,10.0,WSW,15.0,25.3,N/A,,Clear,240,2012-10-09 19:35:00
2:55 PM,-9999,-9999,N/A,29.84,10.0,WSW,16.1,23.0,N/A,,Clear,250,2012-10-09 19:55:00
3:15 PM,-9999,-9999,N/A,29.85,10.0,WSW,17.3,23.0,N/A,,Clear,250,2012-10-09 20:15:00
3:35 PM,-9999,-9999,N/A,29.85,10.0,WSW,18.4,27.6,N/A,,Clear,250,2012-10-09 20:35:00
3:55 PM,-9999,-9999,N/A,29.84,10.0,WSW,17.3,21.9,N/A,,Clear,240,2012-10-09 20:55:00
4:15 PM,-9999,-9999,N/A,29.85,10.0,WSW,15.0,23.0,N/A,,Clear,240,2012-10-09 21:15:00
4:35 PM,-9999,-9999,N/A,29.88,10.0,NNW,19.6,29.9,N/A,,Scattered Clouds,330,2012-10-09 21:35:00
4:55 PM,-9999,-9999,N/A,29.89,10.0,NNW,20.7,26.5,N/A,,Partly Cloudy,330,2012-10-09 21:55:00
5:15 PM,-9999,-9999,N/A,29.90,10.0,NW,25.3,33.4,N/A,,Clear,310,2012-10-09 22:15:00
5:35 PM,-9999,-9999,N/A,29.91,10.0,NW,16.1,28.8,N/A,,Clear,320,2012-10-09 22:35:00
5:55 PM,-9999,-9999,N/A,29.92,10.0,NW,19.6,25.3,N/A,,Scattered Clouds,320,2012-10-09 22:55:00
6:15 PM,-9999,-9999,N/A,29.94,8.0,NW,16.1,21.9,0.01,,Mostly Cloudy,320,2012-10-09 23:15:00
6:35 PM,-9999,-9999,N/A,29.94,7.0,NW,11.5,-,0.03,,Mostly Cloudy,320,2012-10-09 23:35:00
6:55 PM,-9999,-9999,N/A,29.94,10.0,NW,6.9,-,0.04,,Overcast,310,2012-10-09 23:55:00
7:15 PM,-9999,-9999,N/A,29.94,10.0,WNW,5.8,-,0.01,,Overcast,300,2012-10-10 00:15:00
7:35 PM,-9999,-9999,N/A,29.95,10.0,WNW,5.8,-,0.01,,Overcast,290,2012-10-10 00:35:00
7:55 PM,-9999,-9999,N/A,29.95,9.0,WNW,5.8,-,0.02,,Overcast,290,2012-10-10 00:55:00
8:15 PM,-9999,-9999,N/A,29.95,10.0,West,6.9,-,0.01,,Mostly Cloudy,260,2012-10-10 01:15:00
8:35 PM,-9999,-9999,N/A,29.94,10.0,West,6.9,-,0.01,,Partly Cloudy,260,2012-10-10 01:35:00
8:55 PM,-9999,-9999,N/A,29.95,10.0,West,8.1,-,0.01,,Clear,270,2012-10-10 01:55:00
9:15 PM,-9999,-9999,N/A,29.95,10.0,West,9.2,-,N/A,,Scattered Clouds,280,2012-10-10 02:15:00
9:35 PM,-9999,-9999,N/A,29.96,10.0,West,10.4,-,N/A,,Mostly Cloudy,280,2012-10-10 02:35:00
9:55 PM,-9999,-9999,N/A,29.96,10.0,West,10.4,-,N/A,,Scattered Clouds,280,2012-10-10 02:55:00
10:15 PM,-9999,-9999,N/A,29.97,10.0,WNW,9.2,-,N/A,,Partly Cloudy,290,2012-10-10 03:15:00
10:35 PM,-9999,-9999,N/A,29.98,10.0,WNW,10.4,-,N/A,,Clear,290,2012-10-10 03:35:00
10:55 PM,-9999,-9999,N/A,29.98,10.0,WNW,10.4,-,N/A,,Clear,290,2012-10-10 03:55:00
11:15 PM,-9999,-9999,N/A,29.98,10.0,West,9.2,-,N/A,,Clear,280,2012-10-10 04:15:00
11:35 PM,-9999,-9999,N/A,29.99,10.0,West,9.2,-,N/A,,Clear,280,2012-10-10 04:35:00
11:55 PM,-9999,-9999,N/A,29.99,10.0,WNW,9.2,-,N/A,,Clear,290,2012-10-10 04:55:00